Bloomington, IL

2:41 AM CDT on May 23, 2017 (GMT -0500)
Central Ill Regional

Weather History for KBMI - March, 2014

Change the Weather History Date:

Monday, March 10, 2014

  Actual Average Record
Temperature  
Mean Temperature 44 °F -  
Max Temperature 56 °F 46 °F 63 °F (1977)
Min Temperature 34 °F 30 °F 8 °F (2003)
Degree Days  
Heating Degree Days 20    
Moisture  
Dew Point 35 °F    
Average Humidity 70    
Maximum Humidity 86    
Minimum Humidity 57    
Precipitation  
Precipitation 0.00 in - - ()
Sea Level Pressure  
Sea Level Pressure 29.80 in    
Wind  
Wind Speed 14 mph (WSW)    
Max Wind Speed 20 mph    
Max Gust Speed 22 mph    
Visibility 10 miles    
Events      
Averages and records for this station are not official NWS values.
T = Trace of Precipitation, MM = Missing Value Source: NWS Daily Summary

Daily Weather History Graph

Daily Weather History Graph

Search for Another Location

Airport or City:

Trip Planner

Search our weather history database for the weather conditions in past years. The results will help you decide how hot, cold, wet, or windy it might be!

Date:

Astronomy

Mar. 10, 2014 Rise Set
Actual Time 7:15 AM CDT 6:57 PM CDT
Civil Twilight 6:48 AM CDT 7:24 PM CDT
Nautical Twilight 6:16 AM CDT 7:55 PM CDT
Astronomical Twilight 5:44 AM CDT 8:27 PM CDT
Moon 1:39 PM CDT (3/10) 3:27 AM CDT (3/10)
Length of Visible Light 12h 36m
Length of Day
11h 41m
Waxing Gibbous, 70% of the Moon is Illuminated
Mar 10
Waxing Gibbous
Mar 16
Full
Mar 23
Last Quarter
Mar 30
New
Apr 7
First Quarter

Hourly Weather History & Observations

Time (CDT) Temp. Windchill Dew Point Humidity Pressure Visibility Wind Dir Wind Speed Gust Speed Precip Events Conditions
12:56 AM 36.9 °F 27.5 °F 30.0 °F 76% 29.93 in 7.0 mi SSW 16.1 mph - N/A   Clear
1:56 AM 37.9 °F 28.2 °F 30.0 °F 73% 29.90 in 8.0 mi SW 18.4 mph - N/A   Clear
2:56 AM 36.9 °F 26.8 °F 30.0 °F 76% 29.88 in 9.0 mi SW 18.4 mph - N/A   Clear
3:56 AM 36.0 °F 26.0 °F 29.1 °F 76% 29.86 in 9.0 mi SW 17.3 mph - N/A   Clear
4:56 AM 34.9 °F 26.2 °F 29.1 °F 79% 29.85 in 10.0 mi SW 12.7 mph - N/A   Clear
5:56 AM 34.9 °F 25.3 °F 29.1 °F 79% 29.85 in 10.0 mi SW 15.0 mph - N/A   Clear
6:56 AM 34.9 °F 24.6 °F 29.1 °F 79% 29.83 in 10.0 mi SW 17.3 mph - N/A   Clear
7:56 AM 36.9 °F 28.7 °F 29.1 °F 74% 29.85 in 10.0 mi SW 12.7 mph - N/A   Clear
8:56 AM 37.9 °F 29.6 °F 31.1 °F 76% 29.84 in 10.0 mi SW 13.8 mph - N/A   Clear
9:56 AM 41.9 °F 34.0 °F 32.0 °F 68% 29.83 in 10.0 mi WSW 16.1 mph - N/A   Clear
10:56 AM 45.9 °F 38.5 °F 34.0 °F 63% 29.81 in 10.0 mi WSW 18.4 mph - N/A   Clear
11:56 AM 50.0 °F - 36.0 °F 59% 29.80 in 10.0 mi WSW 19.6 mph - N/A   Clear
12:56 PM 52.9 °F - 38.8 °F 59% 29.79 in 10.0 mi WSW 17.3 mph 21.9 mph N/A   Clear
1:56 PM 54.0 °F - 39.9 °F 59% 29.76 in 10.0 mi WSW 13.8 mph - N/A   Clear
2:56 PM 55.9 °F - 41.0 °F 57% 29.74 in 10.0 mi SW 15.0 mph - N/A   Clear
3:56 PM 55.9 °F - 41.0 °F 57% 29.74 in 10.0 mi SW 11.5 mph - N/A   Clear
4:56 PM 54.9 °F - 41.0 °F 60% 29.73 in 10.0 mi WSW 11.5 mph - N/A   Clear
5:56 PM 54.9 °F - 41.9 °F 62% 29.74 in 10.0 mi WSW 6.9 mph - N/A   Clear
6:56 PM 52.0 °F - 38.8 °F 61% 29.75 in 10.0 mi WSW 6.9 mph - N/A   Clear
7:56 PM 50.0 °F - 38.8 °F 66% 29.76 in 10.0 mi West 3.5 mph - N/A   Clear
8:56 PM 50.0 °F - 39.9 °F 68% 29.77 in 10.0 mi WNW 5.8 mph - N/A   Clear
9:56 PM 41.9 °F 39.0 °F 36.9 °F 82% 29.75 in 9.0 mi SSW 4.6 mph - N/A   Clear
10:56 PM 41.9 °F 39.0 °F 36.0 °F 79% 29.74 in 10.0 mi WSW 4.6 mph - N/A   Clear
11:56 PM 39.9 °F 35.8 °F 36.0 °F 86% 29.73 in 9.0 mi SW 5.8 mph - N/A   Clear